Temperature
12 12 12 12 12 12 12 12 11 11 11 11 11 11 11 11 11 11 11 11 11 11 11 11 11 11 11 10 10 10 9 9 9 9 9 8 8 9 9 8 9 9 9
11 12 12 12 12 12 12 11 11 11 11 11 11 11 11 11 11 11 11 11 11 11 11 11 11 10 10 10 10 10 9 9 9 9 8 8 8 8 8 8 8 8 8
11 11 11 11 11 11 11 11 11 11 11 11 10 10 10 10 10 10 10 10 10 10 10 10 10 10 10 10 10 10 10 9 9 9 9 8 8 7 8 8 8 8 8
10 11 11 11 10 11 11 11 11 11 10 10 10 10 10 10 10 10 10 10 10 10 10 10 10 10 10 10 10 9 9 9 9 8 8 8 8 8 7 7 7 7 7
10 10 10 10 10 10 10 10 10 10 10 10 10 10 10 10 10 10 10 10 10 10 10 10 10 10 9 9 9 9 9 9 9 8 8 8 8 8 8 7 7 7 8
9 9 10 10 10 10 10 10 10 10 10 10 10 10 10 10 10 9 9 9 9 9 9 9 9 9 9 9 9 9 9 9 8 8 8 8 8 8 8 8 7 7 7
8 8 9 9 9 9 9 9 9 9 9 9 9 9 9 9 9 9 9 9 9 9 9 9 9 9 9 9 9 8 8 8 8 8 8 8 8 8 8 8 7 6 6
7 7 8 8 8 8 8 9 9 9 9 9 9 9 9 9 9 9 9 9 9 9 9 9 9 8 8 8 8 8 8 8 8 8 8 8 7 7 7 7 7 6 6
6 6 7 7 7 8 8 8 8 8 8 8 8 8 8 8 8 8 8 8 8 8 8 8 8 8 8 8 8 8 8 7 7 7 7 7 7 7 7 7 7 6 6
5 5 6 6 7 7 7 7 7 8 8 8 8 8 8 8 8 8 8 8 8 8 8 8 8 8 8 7 7 7 7 7 7 7 7 7 7 6 6 6 6 6 6
3 4 4 5 5 6 6 6 7 7 7 7 7 7 7 7 7 7 7 7 7 7 7 7 7 7 7 7 7 7 7 7 7 7 6 6 6 6 6 6 6 6 5
2 3 3 4 4 5 5 5 6 6 6 6 6 6 6 6 7 7 7 7 7 7 7 7 7 7 7 7 7 7 7 6 6 6 6 6 6 6 6 5 5 5 5
2 2 2 3 3 4 4 4 5 5 5 6 6 6 6 6 6 6 6 6 6 6 6 6 6 6 6 6 6 6 6 6 6 6 6 6 5 5 5 5 5 5 4
1 1 2 2 2 3 3 3 4 4 5 5 5 5 5 5 6 6 6 6 6 6 6 6 6 6 6 6 6 5 5 6 5 5 5 5 5 5 5 5 4 4 4
-0 0 1 1 2 2 2 3 3 3 4 4 4 4 5 5 5 5 5 5 5 5 5 5 5 5 5 5 5 5 5 5 5 5 5 5 5 5 4 4 4 4 4
-1 -1 -0 0 1 1 2 2 2 3 3 3 4 4 4 4 4 4 4 4 4 4 5 5 5 5 5 5 5 5 4 4 4 4 4 4 4 4 4 4 4 4 3
-2 -2 -1 -1 -0 0 1 1 2 2 2 3 3 3 3 3 3 3 3 4 4 4 4 4 4 4 4 4 4 4 4 4 4 4 4 4 4 4 4 3 3 3 3
-3 -3 -2 -1 -1 -0 0 1 1 1 2 2 2 2 3 3 3 3 3 3 3 3 3 3 3 4 4 4 4 3 3 3 3 3 3 3 3 3 3 3 3 2 2
-4 -3 -3 -2 -2 -1 -0 -0 0 1 1 1 2 2 2 2 2 2 2 2 2 2 3 3 3 3 3 3 3 3 3 3 3 3 3 2 2 3 2 2 2 2 2
-4 -4 -3 -2 -2 -1 -1 -1 -0 0 1 1 1 1 1 2 2 2 2 2 2 2 2 2 2 2 2 2 2 2 2 2 2 2 2 2 2 2 2 2 1 1 1
-5 -4 -4 -3 -3 -2 -2 -2 -1 -1 -0 0 0 1 1 1 1 1 1 1 1 1 1 1 1 1 1 1 1 1 1 2 1 1 1 1 1 1 1 1 1 1 1
-5 -5 -5 -4 -3 -3 -3 -2 -2 -1 -1 -1 -0 0 0 0 0 0 0 1 1 1 1 1 1 1 1 1 1 1 1 1 1 1 1 1 1 1 0 0 0 0 0
-6 -5 -5 -5 -4 -4 -3 -3 -3 -2 -2 -1 -1 -1 -0 -0 -0 -0 -0 -0 0 0 -0 -0 -0 -0 -0 -0 0 0 0 0 0 0 0 0 0 -0 -0 -0 -0 -0 -1
-6 -6 -5 -5 -4 -4 -4 -3 -3 -3 -2 -2 -2 -1 -1 -1 -1 -1 -1 -1 -1 -1 -1 -1 -1 -1 -1 -1 -0 -0 -0 -0 -0 -0 -0 -1 -1 -1 -1 -1 -1 -1 -1
-7 -6 -6 -6 -5 -5 -4 -4 -4 -3 -3 -3 -2 -2 -2 -2 -2 -2 -2 -2 -1 -1 -1 -1 -1 -1 -1 -1 -1 -1 -1 -1 -1 -1 -1 -1 -1 -1 -1 -2 -2 -2 -2
-7 -7 -6 -6 -6 -5 -5 -5 -4 -4 -4 -3 -3 -3 -3 -3 -3 -3 -2 -2 -2 -2 -2 -2 -2 -2 -2 -2 -2 -2 -1 -1 -1 -2 -2 -2 -2 -2 -2 -2 -2 -2 -2
Wind_Speed
7 6 6 7 7 7 7 8 8 7 7 5 5 5 5 4 4 5 7 9 10 10 9 6 6 6 5 6 6 4 4 3 4 4 3 3 3 2 1 2 3 3 4
4 5 5 6 7 8 8 8 9 9 8 6 5 4 4 3 3 4 5 8 9 10 9 7 6 6 6 6 6 5 4 2 3 4 3 1 1 2 1 0 2 2 3
8 7 6 6 7 8 8 8 8 9 8 6 5 4 3 3 2 3 4 5 8 9 9 9 7 7 7 7 7 7 6 4 2 2 4 4 3 1 2 1 1 1 2
7 7 7 7 7 7 7 7 8 8 8 8 7 8 6 5 5 4 4 4 7 8 9 9 9 8 6 7 7 6 5 6 4 2 1 2 3 3 1 2 1 2 2
6 6 6 7 6 6 6 6 6 7 8 9 9 8 5 5 3 3 4 5 4 6 8 9 8 7 6 7 7 6 6 5 5 4 2 2 1 2 3 2 2 2 3
5 4 4 4 4 4 5 5 6 7 8 9 9 9 8 6 6 5 5 5 4 4 5 7 7 7 6 7 7 7 8 7 6 5 4 4 3 3 3 3 3 3 3
2 2 3 4 4 4 5 5 6 5 7 8 8 8 8 8 8 7 6 6 4 4 6 6 6 6 7 7 7 7 7 8 7 7 5 4 4 4 3 3 2 2 2
1 1 3 4 4 5 5 5 6 5 6 8 8 7 7 6 5 6 6 6 5 5 6 6 6 7 7 7 7 6 6 6 7 7 6 4 4 4 4 4 3 2 2
2 1 1 2 3 4 4 5 5 4 5 7 7 6 7 6 6 5 5 5 4 4 6 6 6 6 7 7 7 6 7 6 7 7 7 5 4 4 3 4 4 4 4
5 3 2 2 1 1 2 2 4 4 4 5 6 5 6 6 6 5 5 5 5 4 5 6 6 6 5 6 6 5 6 6 6 5 6 6 4 4 3 4 4 4 4
6 5 4 3 3 2 2 2 2 2 2 3 4 5 5 5 5 5 5 5 4 5 5 6 6 6 6 5 6 6 6 7 6 6 7 7 5 4 4 3 3 3 3
6 7 6 6 5 4 2 1 1 1 2 2 3 4 4 5 5 5 5 5 5 5 5 5 6 5 5 6 6 7 7 7 7 7 6 6 5 5 4 4 4 4 3
8 8 7 7 6 5 4 2 1 0 0 2 3 3 4 4 5 4 4 4 4 4 4 5 6 6 6 6 6 6 6 7 7 7 7 7 6 6 4 5 5 4 3
8 8 6 6 6 5 5 4 3 1 1 1 3 3 4 4 4 4 4 4 4 4 4 5 5 5 5 5 5 6 6 6 6 6 7 7 7 7 6 5 5 4 4
9 8 7 6 6 6 6 5 4 2 1 0 2 3 3 3 3 3 3 3 4 4 4 4 4 4 4 5 5 6 6 6 6 5 6 6 7 8 7 6 6 6 5
9 8 8 8 6 6 6 5 4 3 2 1 0 1 2 3 3 3 3 3 3 3 3 4 4 4 4 5 7 6 5 6 6 6 5 5 6 8 9 9 9 8 7
10 9 8 7 7 6 5 5 4 2 2 1 1 0 1 2 3 3 3 3 3 3 3 3 3 4 4 5 7 7 5 5 5 5 5 4 5 6 6 7 8 8 9
11 11 9 8 7 6 5 4 4 2 1 2 2 1 1 1 2 2 3 3 2 2 2 2 3 3 4 5 6 6 5 4 4 5 5 5 5 6 6 6 5 5 6
10 9 9 8 7 6 5 4 4 4 2 2 1 1 0 1 1 2 2 2 2 2 2 2 2 2 3 4 5 5 3 3 4 4 4 5 5 7 7 6 5 4 4
9 9 8 7 6 6 5 4 4 4 3 2 2 1 1 1 1 2 2 1 2 2 2 1 2 2 2 3 4 4 3 3 3 2 3 5 5 6 7 6 6 6 5
9 8 8 7 6 6 4 4 4 4 4 4 2 1 1 0 1 1 1 2 2 2 1 1 1 2 2 3 3 3 3 3 3 3 3 3 5 6 6 5 5 6 4
9 8 7 6 6 5 4 4 4 5 4 3 3 2 2 1 0 1 1 1 2 3 2 1 1 1 2 2 3 4 3 3 3 3 3 3 5 5 5 4 4 4 3
9 7 6 6 6 5 4 4 5 4 3 3 3 2 2 2 1 0 1 1 2 2 2 2 1 1 1 1 2 3 3 4 3 3 4 4 4 4 3 3 4 3 2
8 7 7 7 7 6 6 5 5 4 3 3 3 3 2 2 2 1 0 1 1 2 2 2 2 1 1 1 1 1 2 2 2 2 2 2 3 2 2 2 2 2 2
7 7 7 7 7 7 6 6 5 4 3 3 3 3 3 2 2 2 1 1 1 2 2 2 2 2 2 3 2 2 2 2 3 2 1 1 1 2 1 1 1 2 2
7 7 7 7 7 7 7 7 6 4 4 3 3 3 2 2 2 2 3 4 2 2 1 1 1 2 2 2 2 2 2 3 4 3 2 2 2 3 3 3 2 2 2
Wind_Direction
223 203 192 185 174 170 168 171 169 170 163 160 161 163 172 169 170 171 171 168 166 165 159 156 157 156 159 160 150 136 132 127 129 106 77 32 32 71 96 116 125 129 145
221 201 188 177 173 176 177 175 175 171 172 174 170 164 159 165 176 173 176 177 171 169 168 162 167 164 157 155 156 142 139 145 149 134 125 107 349 343 6 152 151 155 157
208 202 190 188 179 179 181 183 181 174 171 164 146 127 107 103 149 180 190 188 177 173 171 170 167 167 165 169 170 163 152 163 186 156 147 158 201 242 307 278 213 199 187
208 200 189 185 187 190 184 178 178 175 170 163 163 165 173 179 190 187 190 191 180 176 174 173 172 171 170 172 177 173 161 161 174 186 163 150 152 159 210 305 285 242 224
209 201 194 188 185 180 177 176 172 175 172 169 171 172 177 183 169 166 180 188 186 180 175 175 174 174 176 179 179 174 171 171 175 176 161 136 115 135 162 222 261 268 246
206 198 186 165 165 165 165 167 169 181 177 173 174 177 178 174 167 175 183 189 191 186 181 179 178 178 180 182 183 181 180 184 183 183 177 169 171 182 172 194 223 239 260
184 177 165 159 161 164 166 168 173 183 183 179 180 183 183 179 181 182 186 186 189 194 193 187 185 184 185 184 181 182 187 188 188 193 198 195 194 175 167 170 196 237 266
115 148 173 170 170 171 172 170 176 182 185 184 185 184 180 181 187 185 185 190 196 199 190 188 188 187 186 186 182 187 193 192 195 200 198 199 203 187 179 173 173 217 261
45 79 117 144 160 169 178 179 176 178 187 187 182 181 181 181 185 185 184 188 193 190 183 184 184 186 187 187 182 193 197 193 197 200 200 202 205 196 197 184 178 185 225
28 40 58 72 109 149 158 163 171 177 180 181 182 185 184 185 180 178 183 186 189 182 179 180 184 186 187 187 185 192 194 193 198 197 197 204 206 200 197 196 197 198 207
22 22 34 49 49 52 74 102 149 158 168 179 178 173 177 178 173 177 184 185 183 178 182 183 183 188 190 188 191 197 193 197 200 199 200 206 199 198 199 194 196 206 202
23 26 31 38 42 41 41 61 97 146 187 185 176 175 173 171 173 180 183 179 180 183 184 180 182 188 192 192 194 200 198 201 202 203 202 208 202 200 202 199 204 211 210
21 25 28 27 26 24 21 15 14 343 172 163 170 174 173 176 182 184 181 180 180 181 181 176 184 189 194 198 200 200 202 206 205 203 203 205 198 204 204 201 205 208 210
13 14 15 15 13 13 13 8 354 353 43 148 172 183 188 187 186 179 176 180 179 179 183 187 190 193 194 198 201 201 202 207 208 206 205 205 203 207 204 205 205 200 201
4 1 359 358 3 6 6 4 356 1 19 83 178 195 194 181 170 171 178 176 179 184 182 181 185 186 191 199 198 201 202 205 206 206 206 209 208 209 209 209 203 197 203
349 348 350 351 349 350 350 349 349 352 15 32 237 203 178 172 172 175 171 171 179 182 177 183 188 193 208 208 205 203 202 203 205 209 210 211 212 217 218 219 211 204 203
342 340 336 333 331 333 335 335 332 344 24 20 -0 16 171 171 174 168 163 174 182 179 185 197 198 205 214 209 208 206 201 201 205 207 208 216 219 217 218 223 222 223 223
340 334 331 332 329 331 335 337 337 348 33 40 19 10 47 160 161 157 166 173 172 177 188 200 207 211 223 212 208 202 201 201 207 208 210 214 223 222 212 211 218 226 230
329 326 327 324 325 332 335 343 345 353 17 26 8 341 325 159 168 172 177 170 166 174 189 196 198 210 234 222 208 198 199 201 209 213 213 212 219 223 211 204 213 225 239
335 334 331 330 334 335 336 348 344 349 346 338 324 320 280 174 181 193 184 172 169 181 179 192 204 209 221 220 206 196 195 202 209 211 216 219 220 218 210 206 207 219 228
333 334 332 335 335 333 337 345 341 334 328 329 330 339 328 224 191 179 180 172 168 160 163 191 222 214 216 213 206 202 200 200 202 211 222 226 221 221 219 214 215 223 218
333 334 335 336 336 337 343 344 333 330 340 349 355 353 350 355 69 134 164 164 162 158 168 182 220 245 232 224 215 209 209 204 205 218 222 220 216 218 215 213 211 204 185
332 336 338 338 341 343 346 337 333 341 354 5 0 353 354 5 22 121 163 162 159 164 180 185 205 239 252 232 222 213 217 223 220 220 215 210 208 207 206 201 193 184 177
337 343 346 346 345 350 354 350 345 349 1 4 356 355 8 16 19 16 4 193 196 193 198 203 212 226 247 248 240 225 223 223 218 215 208 205 195 182 181 190 203 200 185
341 349 350 349 347 351 356 355 352 359 5 3 360 0 5 8 9 6 347 309 277 236 214 213 209 208 231 244 237 213 209 201 200 177 162 172 184 193 197 196 198 196 190
343 347 350 351 351 354 356 355 352 359 6 6 5 3 359 360 7 19 14 8 353 354 333 288 248 247 249 244 237 239 232 213 190 174 187 207 209 207 208 207 210 209 205
Height
1468 1470 1473 1475 1478 1480 1482 1485 1487 1490 1493 1495 1498 1501 1503 1506 1509 1512 1514 1517 1519 1522 1524 1526 1528 1530 1532 1533 1535 1537 1539 1540 1542 1544 1545 1547 1548 1549 1549 1550 1550 1551 1552
1463 1466 1468 1470 1473 1475 1478 1481 1483 1486 1489 1492 1495 1498 1501 1503 1506 1509 1512 1514 1516 1519 1521 1523 1525 1527 1529 1531 1532 1534 1536 1538 1540 1541 1542 1544 1547 1546 1547 1547 1548 1549 1550
1459 1461 1463 1466 1468 1471 1473 1476 1479 1482 1485 1489 1492 1495 1498 1500 1503 1505 1508 1511 1513 1515 1518 1520 1522 1524 1526 1527 1529 1531 1532 1534 1537 1538 1540 1541 1542 1543 1544 1544 1545 1546 1547
1455 1457 1459 1461 1464 1467 1470 1473 1476 1479 1482 1485 1488 1490 1492 1495 1498 1501 1505 1507 1510 1512 1514 1517 1519 1520 1522 1524 1526 1528 1529 1531 1533 1535 1536 1538 1539 1540 1540 1542 1542 1543 1544
1452 1453 1456 1458 1461 1464 1467 1469 1472 1475 1479 1481 1484 1487 1490 1493 1496 1498 1501 1504 1506 1508 1511 1513 1515 1517 1519 1521 1523 1524 1526 1528 1530 1531 1533 1534 1536 1536 1537 1538 1539 1540 1541
1449 1450 1453 1455 1458 1461 1463 1466 1468 1471 1475 1478 1481 1483 1486 1489 1492 1494 1497 1499 1502 1504 1507 1509 1511 1513 1515 1517 1519 1521 1523 1524 1526 1528 1530 1531 1532 1533 1534 1534 1535 1536 1537
1446 1447 1449 1452 1454 1457 1459 1462 1465 1468 1471 1474 1477 1480 1483 1485 1488 1490 1493 1495 1497 1500 1502 1505 1507 1509 1511 1513 1515 1517 1519 1520 1522 1524 1526 1527 1528 1530 1531 1532 1532 1533 1534
1444 1445 1447 1449 1451 1454 1456 1459 1462 1465 1467 1470 1473 1476 1479 1482 1484 1486 1489 1491 1493 1495 1498 1500 1503 1505 1507 1509 1511 1513 1515 1517 1518 1520 1522 1524 1525 1526 1527 1528 1529 1529 1530
1444 1444 1446 1447 1449 1452 1454 1456 1459 1461 1464 1467 1470 1472 1475 1478 1480 1482 1485 1487 1489 1492 1494 1496 1499 1501 1503 1505 1507 1509 1511 1513 1514 1516 1517 1519 1521 1522 1523 1525 1526 1527 1526
1444 1444 1445 1446 1448 1450 1452 1454 1456 1459 1461 1464 1466 1469 1471 1474 1476 1479 1481 1483 1485 1488 1490 1492 1495 1497 1499 1501 1503 1504 1506 1508 1510 1511 1513 1514 1516 1518 1519 1520 1521 1522 1523
1446 1445 1445 1446 1448 1449 1451 1452 1454 1456 1458 1460 1463 1465 1467 1470 1472 1474 1477 1479 1482 1484 1486 1488 1491 1493 1494 1496 1498 1500 1502 1503 1505 1507 1508 1509 1511 1512 1514 1515 1516 1517 1518
1448 1447 1446 1447 1448 1448 1449 1450 1452 1454 1455 1457 1460 1462 1464 1466 1468 1470 1473 1476 1478 1480 1482 1484 1486 1488 1490 1492 1494 1495 1497 1499 1500 1502 1503 1505 1506 1507 1509 1510 1511 1512 1513
1450 1449 1448 1448 1448 1448 1449 1449 1450 1451 1453 1455 1457 1458 1461 1463 1465 1467 1469 1472 1474 1476 1478 1480 1482 1484 1486 1487 1489 1491 1492 1494 1496 1497 1499 1500 1501 1502 1504 1505 1506 1507 1508
1452 1450 1449 1449 1448 1448 1448 1448 1449 1450 1451 1452 1454 1455 1457 1459 1461 1464 1466 1468 1470 1472 1474 1476 1478 1479 1481 1483 1484 1486 1488 1489 1491 1492 1494 1495 1496 1497 1499 1500 1501 1502 1503
1453 1452 1450 1449 1448 1448 1447 1447 1447 1448 1449 1450 1451 1452 1454 1456 1458 1460 1462 1464 1466 1468 1470 1472 1474 1475 1477 1478 1480 1482 1483 1484 1486 1487 1489 1490 1492 1493 1494 1495 1496 1497 1498
1455 1453 1451 1449 1448 1447 1447 1446 1446 1447 1447 1448 1449 1450 1451 1453 1455 1456 1459 1460 1462 1464 1466 1468 1469 1471 1472 1474 1476 1477 1478 1480 1481 1482 1484 1485 1487 1488 1489 1491 1492 1493 1493
1456 1453 1451 1449 1448 1447 1446 1445 1445 1445 1445 1446 1447 1448 1449 1450 1452 1453 1455 1457 1459 1461 1462 1464 1465 1467 1468 1470 1472 1473 1474 1475 1476 1478 1479 1481 1482 1483 1484 1485 1487 1488 1488
1456 1453 1450 1448 1447 1445 1444 1444 1443 1443 1443 1444 1445 1446 1447 1448 1449 1450 1452 1454 1455 1457 1458 1460 1461 1463 1464 1466 1467 1469 1470 1471 1472 1473 1475 1476 1477 1478 1479 1480 1481 1482 1482
1456 1453 1450 1448 1445 1444 1442 1442 1441 1441 1441 1441 1442 1443 1444 1445 1446 1448 1449 1451 1452 1453 1455 1456 1458 1459 1460 1462 1463 1464 1465 1466 1467 1469 1470 1471 1472 1473 1474 1475 1475 1476 1477
1454 1451 1448 1446 1443 1441 1441 1440 1439 1438 1438 1439 1440 1441 1442 1443 1444 1445 1446 1448 1449 1450 1451 1452 1454 1455 1456 1457 1458 1460 1461 1462 1463 1464 1465 1466 1467 1468 1469 1469 1470 1470 1471
1452 1449 1446 1443 1441 1440 1439 1438 1437 1437 1437 1437 1438 1439 1440 1440 1441 1442 1443 1444 1445 1446 1448 1449 1450 1451 1452 1453 1454 1456 1457 1458 1458 1459 1460 1461 1462 1463 1464 1464 1465 1465 1466
1450 1447 1444 1441 1440 1438 1437 1436 1435 1435 1435 1436 1436 1436 1437 1438 1439 1439 1440 1441 1442 1443 1444 1445 1446 1447 1448 1449 1450 1451 1453 1454 1454 1455 1456 1457 1458 1458 1459 1459 1460 1461 1462
1449 1446 1443 1440 1438 1437 1436 1435 1434 1434 1433 1434 1434 1434 1435 1435 1436 1437 1437 1438 1439 1439 1440 1441 1442 1443 1444 1445 1446 1447 1448 1449 1450 1450 1451 1452 1453 1454 1455 1455 1456 1457 1457
1447 1444 1442 1439 1437 1436 1435 1434 1433 1432 1432 1432 1432 1432 1432 1433 1433 1434 1435 1435 1436 1436 1437 1438 1438 1439 1440 1441 1442 1443 1444 1445 1446 1446 1447 1448 1449 1450 1450 1451 1452 1452 1453
1447 1444 1441 1439 1437 1435 1433 1432 1432 1431 1430 1430 1430 1430 1431 1431 1431 1432 1433 1433 1434 1434 1435 1435 1436 1436 1437 1438 1439 1439 1440 1441 1441 1442 1443 1444 1445 1445 1446 1447 1447 1448 1449
1446 1444 1441 1439 1436 1434 1433 1431 1431 1430 1429 1428 1428 1429 1429 1429 1429 1430 1430 1431 1432 1432 1432 1433 1433 1433 1434 1435 1435 1436 1437 1437 1438 1439 1438 1439 1440 1441 1441 1442 1443 1444 1444